Flag for U.S.A. Weather past 2 weeks in Lubbock, Texas, U.S.A.

Now
95 °F

Passing clouds.


Feels Like: 94 °F
Forecast: 70 / 93 °F
Wind: 3 mph from North

Location: Lubbock International Airport

Current Time: Jul 23, 2014 at 4:44:21 PM

Latest Report: Jul 23, 2014 at 3:53 PM


Visibility: 9 mi

Pressure: 30.03 "Hg

Humidity: 29%

Dew point: 58 °F

Location of LubbockLocation

Historic Weather in Lubbock — Graph

°F

Lubbock temperature yesterday

Maximum temperature yesterday: 90 °F (at 11:53 AM)
Minimum temperature yesterday: 73 °F (at 4:53 AM)
Average temperature yesterday: 80 °F

Past Weeks' High & Low Weather Summary

 TemperatureHumidityPressure
High98 °F (Jul 21, 4:53 PM)97% (Jul 19, 5:00 AM)30.22 "Hg (Jul 19, 5:00 AM)
Low63 °F (Jul 18, 3:53 AM)22% (Jul 8, 5:53 PM)29.73 "Hg (Jul 16, 5:53 PM)
Average79 °F58%29.94 "Hg
* Reported Jul 8 2:53 PM — Jul 23 2:53 PM, Lubbock, Weather by CustomWeather, © 2014

Note: Actual official high and low records may vary slightly from our data, if they occured in-between our weather recording intervals... More about our weather records

Advertising

Lubbock weather history for previous 24 hours

 ConditionsComfort  
Time TempWeatherWind HumidityBarometerVisibility
2:53 PM
Jul 23
94 °FPassing clouds.9 mph31%30.05 "Hg10 mi
1:53 PM94 °FPassing clouds.8 mph35%30.07 "Hg10 mi
12:53 PM92 °FPassing clouds.6 mph35%30.08 "Hg10 mi
11:53 AM90 °FPassing clouds.5 mph39%30.09 "Hg9 mi
10:53 AM86 °FSunny.No wind46%30.09 "Hg10 mi
9:53 AM83 °FPassing clouds.6 mph53%30.11 "Hg10 mi
8:53 AM79 °FPassing clouds.No wind62%30.10 "Hg10 mi
7:53 AM72 °FPassing clouds.3 mph76%30.08 "Hg10 mi
3:53 AM72 °FPassing clouds.6 mph71%30.05 "Hg8 mi
2:53 AM73 °FPassing clouds.7 mph66%30.04 "Hg8 mi
12:53 AM78 °FPassing clouds.6 mph60%30.03 "Hg9 mi
11:53 PM
Jul 22
80 °FHigh level clouds.5 mph58%30.03 "Hg9 mi
10:53 PM80 °FHigh level clouds.7 mph60%30.03 "Hg9 mi
9:53 PM80 °FBroken clouds.7 mph60%30.03 "Hg9 mi
8:53 PM82 °FBroken clouds.6 mph53%30.00 "Hg8 mi
7:53 PM88 °FBroken clouds.No wind43%29.98 "Hg8 mi
6:53 PM84 °FPartly sunny.No wind51%29.98 "Hg8 mi
Weather by CustomWeather, © 2014

See weather overviewHow to use our weather pages